Location: The Saddle
(36.8333°N, 80.3417°W)
Time: 08:33:31
(UTC-04:00)

Vanguard 1 - Visible Passes

Search period start: 08 July 2025 00:00
Search period end: 18 July 2025 00:00
Orbit: 649 x 3822 km, 34.2° (Epoch: 05 July)

Date Brightness Start Highest point End Pass type
(mag) Time Alt. Az. Time Alt. Az. Time Alt. Az.
08 Jul 10.6 05:10:17 13° SSW 05:13:59 33° SSE 05:19:47 10° E visible
09 Jul 10.3 05:28:39 10° SW 05:33:06 44° SSE 05:39:34 10° E visible
10 Jul 11.5 03:34:20 13° SE 03:34:20 13° SE 03:35:35 10° ESE visible
11 Jul 10.8 03:52:36 20° SE 03:52:36 20° SE 03:56:00 10° E visible
12 Jul 10.2 04:10:54 29° SSE 04:11:27 29° SSE 04:15:53 10° E visible
13 Jul 9.9 04:29:11 31° SSW 04:30:37 40° SSE 04:35:34 10° E visible
14 Jul 9.6 04:47:28 25° SW 04:49:50 51° SSE 04:55:09 10° E visible
15 Jul 9.5 05:05:44 17° WSW 05:09:07 61° S 05:14:43 10° E visible
16 Jul 11.2 03:11:27 18° ESE 03:11:27 18° ESE 03:12:53 10° E visible
16 Jul 9.5 05:24:02 10° WSW 05:28:25 67° S 05:34:17 10° E visible
17 Jul 10.4 03:29:44 29° ESE 03:29:44 29° ESE 03:32:27 10° E visible
17 Jul 9.5 05:43:19 10° W 05:47:45 67° S 05:53:50 10° E visible
